www.pogodaiklimat.ru

Погода и климат >> Архив погоды >> Россия >> Красноярский край >> Светлолобово


ПОГОДА в Светлолобово

  • Прогноз погоды в Светлолобово
  • Монитор погоды в Светлолобово

АРХИВ ПОГОДЫ в Светлолобово

Время (UTC), дата Ветер
(напр.,м/с)
 
Видим.   Явления Облачность Т
(С)
Тd
(С)
f
(%)
Тe
(С)
Тes
(С)
Комфортность P
(гПа)
Po
(гПа)
Тmin
(С)
Tmax
(С)
R
(мм)
R24
(мм)
S
(см)
12 12.06 ЮВ 5 50 км 4/4 600 м
[Cu med, cong]
+24.9 +10.6 41 +26 +27 жарко 1005.6 969.1 +25.5
15 12.06 Ю 4 20 км ясно +18.8 +11.8 64 +19 +19 1006.7 969.5
18 12.06 Ю 1 20 км 4/0
[Ci fib]
+13.4 +10.4 82 +14 +14 1007.5 969.5
21 12.06 З 1 20 км 6/0
[Ci fib]
+10.7 +9.3 91 +10 +10 1007.2 968.9
00 13.06 СЗ 1 20 км 8/3 1000 м
[Sc Ci fib]
+15.9 +12.0 78 +17 +18 1006.8 969.2 +10.4
03 13.06 Ю 5 50 км 8/6 600 м
[Cb cap Ci fib]
+20.3 +12.5 61 +22 +24 комфорт 1005.5 968.5
06 13.06 ЮЗ 6
{11}
50 км 6/6 600 м
[Cu med, cong]
+24.7 +11.8 44 +26 +29 жарко 1004.1 967.7
09 13.06 Ю 4
{10}
50 км 8/8 600 м
[Cu med, cong]
+25.2 +11.2 41 +26 +28 жарко 1002.3 966.0
12 13.06 Ю 7
{12}
50 км 4/4 600 м
[Cu med, cong]
+25.0 +11.9 44 +27 +27 жарко 1001.3 965.1 +26.6
15 13.06 Ю 5
{11}
20 км 3/0
[Ci fib]
+20.3 +11.7 58 +22 +22 комфорт 1002.3 965.4
18 13.06 Ю 5 20 км ясно +18.7 +12.0 65 +19 +19 1001.9 964.8
21 13.06 С 1 20 км ясно +12.9 +10.5 85 +13 +13 1001.9 964.1
00 14.06 Ю 4 50 км 3/0
[Ci fib]
+19.9 +11.8 60 +22 +23 комфорт 1001.3 964.4 +12.5
03 14.06 Ю 6 50 км 6/4 600 м
[Cb cap Ci fib]
+22.2 +13.1 56 +25 +27 комфорт 1000.6 964.0
06 14.06 З 3 50 км 8/6 600 м
[Cb cap Ci fib]
+25.6 +13.4 47 +28 +32 жарко 999.8 963.7
09 14.06 СЗ 3
{11}
50 км 8/8 600 м
[Cb cap]
+25.6 +12.7 45 +27 +29 жарко 1000.1 963.9
12 14.06 С 3
{11}
50 км 8/6 600 м
[Cb cap Ci fib]
+23.1 +15.0 60 +27 +28 душно 1002.2 965.7 +26.6
15 14.06 З 2 20 км 6/6 600 м
[Cb cap]
+17.2 +13.9 81 +18 +18 1004.3 967.0
18 14.06 Ю 1 20 км 8/8 600 м
[Cb cap]
+12.7 +11.1 90 +13 +13 1005.0 967.1
21 14.06 СВ 1 20 км 6/6 1000 м
[Sc]
+10.9 +10.3 96 +10 +10 1004.8 966.6
00 15.06 З 1 50 км 9/8 600 м
[Cb cap Ci fib]
+13.9 +13.3 96 +14 +15 1004.7 966.9 +9.6
03 15.06 СЗ 1 50 км 9/8 600 м
[Cb cap Ci fib]
+19.2 +15.0 77 +22 +24 комфорт 1002.9 965.9
06 15.06 С 2 20 км 8/8 600 м
[Cb cap]
+23.4 +16.0 63 +28 +31 душно 1001.6 965.2
09 15.06 СЗ 4
{14}
20 км в посл. час гроза {ливн. осадки} 9/8 600 м
[Cb cap Ci fib]
+19.6 +16.3 81 +22 +23 комфорт 1004.1 967.2
12 15.06 СЗ 4 20 км {гроза, ливн. осадки} 8/5 600 м
[Cb cap Ci fib]
+16.6 +13.8 84 +16 +17 1005.8 968.4 +24.1 2
15 15.06 З 1 20 км 8/8 600 м
[Cb cap]
+14.7 +13.1 90 +15 +15 1006.5 968.8
18 15.06 ЮЗ 2 20 км 8/3 600 м
[Cb cap Ci fib]
+12.7 +12.3 97 +12 +12 1006.2 968.2
21 15.06 З 1 20 км 9/9 600 м
[Cb cap]
+13.7 +13.2 97 +14 +14 1004.3 966.6
00 16.06 В 2 20 км 8/6 1000 м
[Sc Ci sp]
+14.7 +14.1 96 +14 +15 1003.5 965.9 +12.3
03 16.06 В 2 4000 м дымка 8/5 600 м
[Cb cap Ci sp]
+17.1 +15.3 89 +17 +22 1002.8 965.6
06 16.06 Ю 4 50 км 6/3 600 м
[Cb cap Ci fib]
+24.0 +15.8 60 +27 +34 жарко 1000.9 964.6
09 16.06 В 3 50 км 6/6 600 м
[Cb cap]
+25.6 +15.7 54 +29 +32 душно 999.4 963.3
12 16.06 ЮВ 3 50 км 8/5 600 м
[Cb cap Ci fib]
+25.2 +14.8 52 +28 +29 жарко 999.6 963.5 +26.9
15 16.06 З 5
{13}
20 км гроза без осадков 9/9 600 м
[Cb cap]
+17.2 +14.3 83 +17 +17 1003.1 965.9
18 16.06 З 3 20 км {гроза, ливн. осадки} 8/8 600 м
[Cb cap]
+15.4 +13.0 86 +15 +15 1004.2 966.7
21 16.06 ЮЗ 6
{12}
20 км 8/8 600 м
[Cb cap]
+13.7 +9.5 76 +12 +12 1007.1 969.2
00 17.06 Ю 6 4000 м слаб. ливневой дождь 10/10 600 м
[Cb cap]
+11.1 +8.9 86 +8 +8 1009.6 971.2 +10.9 3
03 17.06 ЮЗ 6
{13}
50 км {ливн. осадки} 8/8 600 м
[Cb cap]
+12.6 +7.0 69 +10 +11 1011.0 972.8
06 17.06 З 4
{12}
50 км {ливн. осадки} 8/8 600 м
[Cb cap]
+14.3 +7.2 62 +13 +15 1012.1 974.1
09 17.06 З 7-11
{11}
50 км 8/5 600 м
[Cb cap Ci fib]
+16.4 +5.0 47 +15 +16 1013.0 975.1
12 17.06 ЮЗ 2
{11}
50 км 6/6 600 м
[Cu med, cong]
+16.4 +5.5 48 +17 +18 1013.3 975.5 +17.2 0.0
15 17.06 Ю 3 20 км 4/4 1000 м
[Sc]
+10.0 +6.8 80 +8 +8 1015.1 976.4
18 17.06 Ю 1 20 км ясно +8.1 +6.1 87 +7 +7 1015.6 976.6
21 17.06 СЗ 1 20 км ясно +5.7 +5.3 97 +4 +4 1015.3 976.0
00 18.06 СВ 2 50 км ясно +12.1 +8.5 79 +11 +14 1014.5 976.1 +5.3
03 18.06 ЮВ 4 50 км 3/0
[Ci fib]
+16.9 +8.2 56 +16 +23 1012.7 975.0
06 18.06 ЮВ 4 50 км 3/0
[Ci fib]
+20.8 +5.8 38 +22 +32 комфорт 1009.8 972.6
09 18.06 Ю 4 50 км 3/0
[Ci fib]
+22.8 +6.4 35 +23 +30 комфорт 1007.6 970.6
12 18.06 ЮВ 3 50 км 4/0
[Ci fib]
+23.7 +7.3 35 +24 +26 комфорт 1005.3 968.7 +24.2
15 18.06 СВ 2 20 км 6/6 1000 м
[Sc]
+16.2 +9.5 64 +16 +16 1005.0 967.5
18 18.06 В 1 20 км 4/4 1000 м
[Sc]
+12.9 +8.5 75 +13 +13 1004.1 966.2
21 18.06 ЮЗ 2 20 км 8/8 600 м
[Cb cap]
+10.2 +8.7 90 +9 +9 1004.6 966.3
00 19.06 штиль 0 50 км 8/6 600 м
[Cb cap Ci fib]
+14.9 +11.4 80 +15 +16 1005.3 967.6 +9.2
03 19.06 ЮЗ 7-10
{11}
50 км 8/8 600 м
[Cb cap]
+19.9 +10.8 56 +21 +21 комфорт 1006.4 969.3
06 19.06 ЮЗ 6
{11}
50 км 9/8 600 м
[Cb cap Ci sp]
+20.4 +8.3 46 +21 +22 комфорт 1007.6 970.5
09 19.06 Ю 5
{13}
50 км 8/6 600 м
[Cb cap Ci sp]
+21.0 +7.0 40 +22 +24 комфорт 1008.7 971.7

 

Местоположение метеостанции Светлолобово (Красноярский край, Россия): широта 55.10 долгота 90.83 высота над уровнем моря 325 м.

В архиве по умолчанию представлена погода в Светлолобово за последнюю неделю. Архивные данные за месяц целиком и за предыдущие месяцы, начиная с января 2011 года, Вы можете получить, выбрав интересующий диапазон дат из раскрывающегося списка и нажав кнопку "Ввод!".


*Определитесь, кто Вы:
робот инопланетянин человек

Внимание! Время в таблицах - всемирное. Для получения местного времени необходимо прибавить поправку, которая равна 7 ч.

Смотрите также архив погоды в соседних городах и на ближайших метеорологических станциях:

Погода в Первомайском (Хакасия, Россия) (58 км)
Погода в Балахте (Красноярский край, Россия) (62 км)
Погода в Копьево-2 (Хакасия, Россия) (63 км)
Погода в Ужуре (Красноярский край, Россия) (68 км)
Погода в Шире (Хакасия, Россия) (88 км)
Погода в Назарово (Красноярский край, Россия) (108 км)
Погода в Лебяжьем (Красноярский край, Россия) (111 км)
Погода в Шарыпово (Красноярский край, Россия) (114 км)
Погода в Идринском (Красноярский край, Россия) (116 км)
Погода в Кемчуге (Красноярский край, Россия) (123 км)

Пояснения к столбцам:

Ветер - указаны скорость ветра в м/с - средняя за 10 мин, порывы в срок и между сроками (в фигурных скобках) и направление, откуда дует ветер: С - северный, СВ - северо-восточный, В - восточный, ЮВ - юго-восточный, Ю - южный, ЮЗ - юго-западный, З - западный, СЗ - северо-западный.
Видимость - горизонтальная дальность видимости в метрах или километрах. При видимости от 1 до 10 км при отсутствии осадков обычно наблюдается дымка, при ухудшении видимости до 1 км и менее - туман. В сухую погоду видимость может ухудшаться дымом, пылью или мглою.
Явления - указаны атмосферные явления, наблюдавшиеся в срок или в последний час перед сроком; фигурными скобками обозначены явления, наблюдавшиеся между сроками (за 1-3 часа до срока); квадратными скобками обозначены град или гололедные отложения с указанием их диаметра в мм.
Облачность - указаны через наклонную черту общая и нижняя облачность в баллах и высота нижней границы облаков в метрах; квадратными скобками обозначены формы облаков: Ci - перистые, Cs - перисто-слоистые, Cc - перисто-кучевые, Ac - высококучевые, As - высокослоистые, Sc - слоисто-кучевые, Ns - слоисто-дождевые, Cu - кучевые, Cb - кучево-дождевые. Подробнее классификацию облаков см. в Атласе облаков (PDF).
T - Температура воздуха - температура, измеренная на высоте 2 м над землей.
Td - Температура точки росы - температура, при понижении до которой содержащийся в воздухе водяной пар достигнет насыщения.
f - Относительная влажность воздуха - влажноcть воздуха, измеренная на высоте 2 м над землей.
Te - Эффективная температура - температура, которую ощущает одетый по сезону человек в тени. Характеристика душности погоды. При расчете учитывается влияние влажности воздуха и скорости ветра на теплоощущения человека.
Tes - Эффективная температура на солнце - температура, которую ощущает человек, с поправкой на солнечный нагрев. Характеристика знойности погоды. Зависит от высоты солнца над горизонтом, облачности и скорости ветра. Ночью, в пасмурную погоду, а также при ветре 12 м/с и более поправка равна нулю.
P - Атмосферное давление - приведенное к уровню моря атмосферное давление.
Po - Атмосферное давление - измеренное на уровне метеостанции атмосферное давление.
Tmin - Минимальная температура - минимум температуры воздуха на высоте 2 м над землей.
Tmax - Максимальная температура - максимум температуры воздуха на высоте 2 м над землей.
R - Количество осадков - Количество выпавших осадков за период времени, мм. При наведении курсора мыши на число - период времени, за который выпало указанное количество осадков.
R24 - Количество осадков - Количество выпавших осадков за 24 часа, мм.
S - Снежный покров - Высота снежного покрова, см. При наведении курсора мыши на число - состояние снежного покрова и степень покрытия местности в баллах.